Regional Weather Roundup
Issued by NWS Wakefield, VA

Home | Current Version | Previous Version | Text Only | Print | Product List | Glossary Off
Versions: 1 2 3 4 5 6 7 8 9 10 11 12 13 14 15 16 17 18 19 20 21 22 23 24 25 26 27 28 29 30 31 32 33 34 35 36 37 38 39 40 41 42 43 44 45 46 47 48 49 50

228
ASUS41 KAKQ 271315
RWRAKQ

REGIONAL WEATHER ROUNDUP
NATIONAL WEATHER SERVICE WAKEFIELD VA
900 AM EDT THU APR 27 2017

Note: "fair" indicates few or no clouds below 12,000 feet with no
significant weather and/or obstructions to visibility. * = Denotes
station may not report precipitation (e.g., rain,snow,etc.),
thunder or fog.

VAZ042-051-052>054-056-271400-
NORTHERN VIRGINIA

CITY           SKY/WX    TMP DP  RH WIND       PRES   REMARKS
WASH NATIONAL  PTSUNNY   66  61  84 CALM      29.86R
DULLES         FOG       60  59  96 CALM      29.85R VSB 1/4
FORT BELVOIR   PTSUNNY   64  61  88 VRB3      29.85R
QUANTICO       NOT AVBL
FREDERICKSBRG* SUNNY     62  62 100 CALM      29.84R
STAFFORD*      MOSUNNY   62  62 100 CALM      29.89R
WARRENTON      CLOUDY    63  59  88 CALM      29.84R FOG
CULPEPER*      FOG       62  62 100 CALM      29.85S VSB 1/2
MANASSAS*        N/A     61  60  97 CALM      29.85R FOG
LEESBURG*      FOG       61  61 100 E5        29.86R VSB 3/4
WINCHESTER     FOG       57  57 100 CALM      29.82F VSB 1/4
FRONT ROYAL*   CLOUDY    59  59 100 CALM      29.81F
LURAY*         CLOUDY    61  61 100 CALM      29.81S
$$

VAZ048-049-060>072-079>083-271400-
CENTRAL AND SOUTH CENTRAL VIRGINIA

CITY           SKY/WX    TMP DP  RH WIND       PRES   REMARKS
RICHMOND       MOSUNNY   69  63  81 S9        29.87R
CHESTERFIELD*  FAIR      70  48  46 SW8       29.88R
PETERSBURG*    SUNNY     69  61  77 S6        29.88R
HANOVER        SUNNY     70  61  73 S8        29.87R
TAPPAHANNOCK*  SUNNY     69  67  91 S7        29.87S
QUINTON*       FAIR      69  65  88 SE6       29.86S
CHARLOTTSVILLE CLOUDY    62  61  96 S3        29.84R FOG
GORDONSVILLE*  CLOUDY    62  62 100 SW6       29.84S FOG
ORANGE*        CLOUDY    61  61 100 CALM      29.84S FOG
LOUISA*        SUNNY     70  66  88 SW3       29.84S
BUMPASS*       FAIR      67  64  89 SW5       29.84S
FARMVILLE*     SUNNY     68  64  85 SW10      29.86R
CREWE*         FAIR      69  67  93 S3        29.87S
FORT PICKETT*  FAIR      68  62  81 S8        29.88R
CHASE CITY*    FAIR      68  63  83 S3        29.89R
CLARKSVILLE*   FAIR      66  63  88 S10G16    29.88R
SOUTH HILL*    SUNNY     66  62  86 S9        29.95R
LAWRENCEVILLE* FAIR      68  61  78 S7        29.89R
EMPORIA*       SUNNY     68  61  77 S8        29.91R
$$

VAZ088>098-271400-
SOUTHEAST VIRGINIA

CITY           SKY/WX    TMP DP  RH WIND       PRES   REMARKS
NORFOLK        MOSUNNY   72  62  71 SW14      29.90R
VIRGINIA BEACH MOSUNNY   70  60  70 SW12      29.90R
NORFOLK NAVAL  MOSUNNY   71  62  73 SW10      29.91S
WEST POINT*    SUNNY     69  63  80 S6        29.88S
SALUDA*        FAIR      70  64  83 SW8       29.87S
NEWPORT NEWS   SUNNY     70  61  73 SW14      29.89S
LANGLEY AFB    MOSUNNY   71  61  71 SW10      29.89R
FORT EUSTIS    SUNNY     72  61  68 SW9       29.87R
WILLIAMSBURG*  SUNNY     70  63  78 CALM      29.89S
HR EXEC AP*    FAIR      70  63  78 SW9       29.89R
FRANKLIN*      SUNNY     70  60  71 SW12      29.91R
US460-WAKEFLD  SUNNY     70  61  73 SW8       29.89R
$$

VAZ020-022-025-037-045-271400-
WEST CENTRAL AND SOUTHWEST VIRGINIA

CITY           SKY/WX    TMP DP  RH WIND       PRES   REMARKS
STAUNTON*      CLOUDY    67  61  79 SW5       29.85R
WAYNESBORO*    CLOUDY    68  61  77 CALM      29.84R
HOT SPRINGS VA CLOUDY    59  54  82 S12G18    29.93R
LYNCHBURG      CLOUDY    65  60  84 S7        29.88R
DANVILLE       MOSUNNY   66  62  87 SW7       29.89R
SOUTH BOSTON*  FAIR      67  63  87 S5        29.89R
MARTINSVILLE   CLOUDY    65  60  83 CALM      29.90R
ROANOKE        CLOUDY    63  60  90 SE3       29.88R
BLACKSBURG     CLOUDY    65  56  71 S8        29.92R
DUBLIN*        CLOUDY    66  54  65 S9G16     29.90R
MARION*        PTSUNNY   67  53  59 CALM      29.89F
HILLSVILLE*    CLOUDY    62  56  83 S14G22    29.90R
RICHLANDS*     FAIR      64  51  63 S6        29.83F
WISE*          CLOUDY    63  50  63 S7G18     29.83F
ABINGDON*      CLOUDY    64  57  78 CALM      29.83F
$$

MDZ021>025-VAZ099-100-271400-
SOUTHERN MARYLAND AND THE DELMARVA PENINSULA

CITY           SKY/WX    TMP DP  RH WIND       PRES   REMARKS
PATUXENT RIVER MOSUNNY   66  65  96 CALM      29.86R
BAY BRIDGE APT SUNNY     66  61  82 SE8       29.86F HAZE
LEONARDTOWN    SUNNY     68  61  77 S5        29.87S
DOVER          PTSUNNY   60  60 100 E6        29.88S
GEORGETOWN     PTSUNNY   65  61  87 SE7       29.89S
EASTON         MOSUNNY   66  61  82 SE7       29.91R
CAMBRIDGE      MOSUNNY   66  63  88 S8        29.87S
SALISBURY      CLOUDY    63  63 100 S7        29.89S FOG
OCEAN CITY     FOG       57  57 100 S5        29.90S VSB 1/4
WALLOPS ISLAND MOSUNNY   62  62 100 S5        29.90S
ACCOMACK*      CLOUDY    69  58  65 SW7       29.89S
$$

NCZ012>017-030>032-271400-
NORTH CENTRAL AND EASTERN NORTH CAROLINA

CITY           SKY/WX    TMP DP  RH WIND       PRES   REMARKS
ROANOKE RAPIDS FAIR      68  61  77 S10       29.91R
RALEIGH        MOSUNNY   69  62  78 SW9       29.91R
ELIZABETH CITY SUNNY     72  64  76 SW12      29.93R
AHOSKIE*         N/A     69  62  79 S6        29.91S
EDENTON*       SUNNY     73  64  74 SW7       29.93S
CURRITUCK*     SUNNY     72  62  71 SW12G17   29.94R
KILL DEVIL HLS SUNNY     72  62  70 W7        29.93S
MANTEO         SUNNY     71  63  75 W7        29.95R
CAPE HATTERAS  PTSUNNY   73  66  78 SW5       29.96R HAZE
TARBORO*       NOT AVBL
GOLDSBORO      SUNNY     70  68  93 SW10      29.91R
WASHINGTON     SUNNY     72  64  75 SW7       29.93S
GREENVILLE     SUNNY     72  64  78 SW10      29.94S
NEW BERN       SUNNY     73  66  78 S8        29.94S
WILMINGTON     SUNNY     74  65  73 SW13      29.94R
$$

VAZ048-271400-
ELSEWHERE

CITY           SKY/WX    TMP DP  RH WIND       PRES   REMARKS
HARRISBURG PA  CLOUDY    60  59  96 E7        29.86S FOG
BALTIMORE      CLOUDY    59  59 100 E6        29.86R FOG
ANNAPOLIS      NOT AVBL
ANDREWS AFB    CLOUDY    61  60  99 E6        29.84S
PHILADELPHIA   CLOUDY    64  58  80 SE6       29.90S
HENDERSON NC   SUNNY     64  59  81 SW9       29.91R
GREENSBORO     CLOUDY    66  61  84 SW10      29.89R
ROCKY MOUNT    SUNNY     70  63  78 S10       29.92R
$$

VAZ100-271400-
MARINE

STATION/POSITION TIME  TEMP    WIND        PRES    WAVE   SWELL
                       AIR SEA DIR/SP/G            HT/PER HT/PER
                 (UTC) (F)     (DEG/KT/KT) (MB)    (FT/S) (FT/S)
CAPE MAY NJ      1248   59 55  110/  9/ 11 1012.3R
LEWES DE         1248   59 56  150/  9/ 12 1012.2R
15NM E FENWICK I 1150   53 51  110/  6/  8 1012.8    5/ 9   5/ 9
OCEAN-CITY-INLET 1248   56 54  190/  4/  5 1012.9R
WACHAPREAGUE VA  1248   64 61  210/  6/  8 1011.9R
THOMAS POINT MD  1300   60 57  130/  5/  6   N/A
GOOSES REEF MD   1250   61     150/ 10/ 12 1011.8S
COVE POINT MD    1248   60     170/ 11/ 12 1011.7F
SOLOMONS ISLAND  1248   62 59   90/  6/  7   N/A
BISHOPS HEAD MD  1248   62 61  150/  8/  9 1011.9R
PINEY POINT MD   1242          140/  3/  4   N/A
POTOMAC MD       1250   65     220/  8/  8 1010.3R
CAMBRIDGE MD     1242   67 62                N/A
LEWISETTA VA     1248   68 62  220/  8/ 10 1010.8R
RAPPAHANNOCK LGT 1242          170/ 11/ 12 1012.6R
STINGRAY PT      1250   66     230/  2/  4 1011.7R
YORK RVR RNG VA  1248   68     240/  8/ 10 1011.5R
YORKTOWN VA      1248   69 63  220/ 13/ 18 1011.5R
JAMESTOWN VA     1250   69     200/ 12/ 14   N/A
DOMINION TERM VA 1248   68     220/ 12/ 14 1012.4R
KIPTOPEKE VA     1242      61  210/  7/  9   N/A
CHES BAY BRIDGE  1248   68 62  240/ 14/ 17 1012.1R
CAPE HENRY VA    1248   71     210/ 10/ 15   N/A
WILLOUBY STN VA  1242          210/ 12/ 13 1013.2R
S CRANEY ISL VA  1248   69     220/  8/ 14 1012.1R
CAPE HENRY BUOY  1242      60                N/A     3/ 9   2/11
1ST LANDING BUOY 1250   68                 1012.5R
CAPE CHARLES BUO 1251      56                N/A     3/ 9   2/11
64NM E OF VA BCH 1250   61 55  220/ 10/ 12 1014.2R   5/10   5/10
DUCK PIER NC     1248   69 59  240/ 10/ 14 1013.3R
44100 DUCK FRF   1235      58                N/A     4/10   2/13
44056 DUCK FRF   1230      61                N/A     3/13   2/13
OREGON INLET NC  1242   69 67  220/  9/ 11 1013.8R
HATTERAS NC      1248   71 69  180/  2/  4 1014.1R
DIAMOND SHLS NC  1250   76 77  220/ 14/ 16 1014.2R   5/ 9   3/ 9
CAPE LOOKOUT NC  1200   70     180/  3/  3 1013.6R
$$




USA.gov is the U.S. government's official web portal to all federal, state and local government web resources and services.